Weather History for Pasco, WA

Change the Weather History Date:

Friday, April 19, 2013

  Actual Average Record
Temperature  
Mean Temperature 58 °F 53 °F  
Max Temperature 65 °F 68 °F 83 °F (2010)
Min Temperature 51 °F 39 °F 28 °F (2011)
Degree Days  
Heating Degree Days 7 12  
Month to date heating degree days 256 249  
Since 1 July heating degree days 4439 4710  
Cooling Degree Days 0 0  
Month to date cooling degree days 0 0  
Year to date cooling degree days 0 0  
Growing Degree Days 8 (Base 50)    
Moisture  
Dew Point 45 °F    
Average Humidity 69    
Maximum Humidity 89    
Minimum Humidity 48    
Precipitation  
Precipitation 0.11 in 0.02 in 0.91 in (1970)
Month to date precipitation 0.55 0.44  
Year to date precipitation 1.26 3.31  
Snow  
Snow 0.00 in - - ()
Snow Depth 0.00 in    
Sea Level Pressure  
Sea Level Pressure 30.05 in    
Wind  
Wind Speed 13 mph (SW)    
Max Wind Speed 28 mph    
Max Gust Speed 32 mph    
Visibility 10 miles    
Events Rain    
T = Trace of Precipitation, MM = Missing Value Source: NWS Daily Summary

Daily Weather History Graph

Daily Weather History Graph

Search for Another Location

Airport:

Trip Planner

Search our weather history database for the weather conditions in past years. The results will help you decide how hot, cold, wet, or windy it might be!

Date:

Astronomy

Apr. 19, 2013 Rise Set
Actual Time 6:02 AM PDT 7:49 PM PDT
Civil Twilight 5:30 AM PDT 8:21 PM PDT
Nautical Twilight 4:51 AM PDT 9:00 PM PDT
Astronomical Twilight 4:08 AM PDT 9:43 PM PDT
Moon 1:18 PM PDT (4/19) 2:41 AM PDT (4/19)
Length of Visible Light 14h 51m
Length of Day
13h 47m
Waxing Gibbous, 62% of the Moon is Illuminated
Apr 19
Waxing Gibbous
Apr 25
Full
May 2
Last Quarter
May 9
New
May 17
First Quarter

Hourly Weather History & Observations

Time (PDT) Temp. Dew Point Humidity Pressure Visibility Wind Dir Wind Speed Gust Speed Precip Events Conditions
12:53 AM 52.0 °F 45.0 °F 77% 30.18 in 10.0 mi SW 9.2 mph - N/A   Overcast
1:53 AM 53.1 °F 46.0 °F 77% 30.17 in 10.0 mi SSW 5.8 mph - 0.00 in Rain Light Rain
2:53 AM 51.1 °F 46.9 °F 86% 30.14 in 10.0 mi SW 12.7 mph - 0.00 in Rain Light Rain
3:53 AM 52.0 °F 46.0 °F 80% 30.14 in 10.0 mi WSW 12.7 mph - 0.00 in Rain Light Rain
4:53 AM 52.0 °F 46.9 °F 83% 30.13 in 10.0 mi SW 12.7 mph - 0.02 in Rain Light Rain
5:53 AM 51.1 °F 46.9 °F 86% 30.10 in 10.0 mi SW 16.1 mph 20.7 mph 0.03 in Rain Light Rain
6:53 AM 51.1 °F 48.0 °F 89% 30.08 in 10.0 mi SSW 5.8 mph - 0.04 in Rain Light Rain
7:53 AM 53.1 °F 46.9 °F 80% 30.06 in 10.0 mi SW 16.1 mph 19.6 mph 0.01 in Rain Light Rain
8:53 AM 53.1 °F 46.9 °F 80% 30.05 in 10.0 mi SW 11.5 mph - 0.00 in Rain Light Rain
9:53 AM 55.9 °F 46.0 °F 69% 30.03 in 10.0 mi SW 18.4 mph 25.3 mph 0.00 in   Overcast
10:53 AM 55.0 °F 46.0 °F 72% 30.02 in 10.0 mi WSW 25.3 mph 32.2 mph 0.01 in   Partly Cloudy
11:53 AM 55.0 °F 46.0 °F 72% 30.03 in 10.0 mi WSW 17.3 mph 26.5 mph N/A   Mostly Cloudy
12:53 PM 55.9 °F 46.0 °F 69% 30.03 in 10.0 mi SW 18.4 mph - 0.00 in   Overcast
1:53 PM 57.9 °F 46.0 °F 65% 30.02 in 10.0 mi SW 15.0 mph - N/A   Mostly Cloudy
2:53 PM 60.1 °F 46.9 °F 62% 30.00 in 10.0 mi SW 16.1 mph - N/A   Scattered Clouds
3:53 PM 62.1 °F 46.0 °F 56% 29.99 in 10.0 mi SW 15.0 mph 25.3 mph N/A   Clear
4:53 PM 64.9 °F 46.0 °F 50% 29.98 in 10.0 mi SW 18.4 mph 27.6 mph N/A   Mostly Cloudy
5:53 PM 64.0 °F 45.0 °F 50% 29.97 in 10.0 mi SW 17.3 mph - N/A   Scattered Clouds
6:53 PM 63.0 °F 45.0 °F 52% 29.96 in 10.0 mi SW 18.4 mph 23.0 mph N/A   Overcast
7:53 PM 60.1 °F 45.0 °F 57% 29.98 in 10.0 mi SW 15.0 mph - N/A   Overcast
8:53 PM 57.9 °F 44.1 °F 60% 30.01 in 10.0 mi WSW 9.2 mph - N/A   Overcast
9:53 PM 57.0 °F 42.1 °F 57% 30.02 in 10.0 mi WSW 11.5 mph - N/A   Overcast
10:53 PM 55.0 °F 39.9 °F 57% 30.05 in 10.0 mi WSW 13.8 mph - N/A   Clear
11:53 PM 53.1 °F 39.0 °F 59% 30.06 in 10.0 mi SSW 8.1 mph - N/A   Clear